Location: Bieg
(49.3499°N, 10.3835°E)
Time: 22:45:58
(UTC+00:00)

Cosmos 1954 Rocket - Pass Details

Date: 23 May 2024
Orbit: 750 x 778 km, 74.0° (Epoch: 25 June)

Event Time Altitude Azimuth Distance (km) Brightness Sun altitude
Exits shadow 00:48:52 28° 221° (SW) 1,447 4.9 -17.0°
Maximum altitude 00:51:42 66° 296° (WNW) 852 4.2 -16.8°
Drops below altitude 10° 00:57:00 10° 19° (NNE) 2,339 7.8 -16.4°
Sets 00:59:25 0° 22° (NNE) 3,269 9.1 -16.3°
